Location: Recife
(8.0585°S, 34.8848°W)
Time: 10:26:01
(UTC-03:00)

Courier 1B Rocket - Pass Details

Date: 16 April 2026
Orbit: 920 x 1201 km, 28.2° (Epoch: 13 May)

Event Time Altitude Azimuth Distance (km) Brightness Sun altitude
Rises 17:05:28 0° 284° (WNW) 4,073 11.7 1.9°
Reaches altitude 10° 17:11:29 10° 319° (NW) 3,060 8.5 0.5°
Maximum altitude 17:13:04 11° 331° (NNW) 2,989 8.2 0.1°
Drops below altitude 10° 17:14:39 10° 344° (NNW) 3,023 8.0 -0.3°
Sets 17:20:28 0° 20° (NNE) 3,901 8.0 -1.7°
